CCA2117 ZBAA-ZBYC

Flight info

Callsign CCA2117
Flight time 1h 8m
Altitude 38100
Route RUSDO9Z RUSDO W45 VAGBI B215 EKETA B208 AGVUR W175 BIVAT
Aircraft A20N/M-SDE2E3FGHIRWXY/LB1

Departure

Time 2026-05-07 13:14
Airport Beijing Capital International Airport (ZBAA)

Arrival

Time 2026-05-07 14:23
Airport Yuncheng Yanhu International Airport (ZBYC)
Time Latitude Longitude Altitude Speed Heading
2026-05-07 12:34 40.08176 116.58065 123 ft 0 kts 193°
2026-05-07 12:55 40.08186 116.58067 123 ft 3 kts 193°
2026-05-07 12:55 40.08212 116.58075 123 ft 3 kts 193°
2026-05-07 12:55 40.08236 116.58073 123 ft 3 kts 149°
2026-05-07 12:55 40.08249 116.58047 123 ft 3 kts 98°
2026-05-07 12:56 40.08249 116.58038 123 ft 0 kts 85°
2026-05-07 12:58 40.08250 116.58049 123 ft 2 kts 85°
2026-05-07 12:59 40.08252 116.58080 123 ft 4 kts 85°
2026-05-07 12:59 40.08256 116.58134 123 ft 6 kts 75°
2026-05-07 12:59 40.08303 116.58163 123 ft 9 kts 358°
2026-05-07 12:59 40.08355 116.58196 123 ft 10 kts 70°
2026-05-07 13:00 40.08366 116.58292 123 ft 11 kts 83°
2026-05-07 13:00 40.08376 116.58395 123 ft 11 kts 83°
2026-05-07 13:00 40.08386 116.58508 123 ft 12 kts 84°
2026-05-07 13:00 40.08396 116.58624 123 ft 13 kts 83°
2026-05-07 13:01 40.08408 116.58747 123 ft 13 kts 83°
2026-05-07 13:01 40.08419 116.58875 123 ft 14 kts 83°
2026-05-07 13:01 40.08431 116.58996 123 ft 10 kts 83°
2026-05-07 13:01 40.08435 116.59045 123 ft 0 kts 83°
2026-05-07 13:03 40.08437 116.59055 123 ft 2 kts 83°
2026-05-07 13:03 40.08440 116.59096 123 ft 6 kts 84°
2026-05-07 13:03 40.08446 116.59167 123 ft 9 kts 82°
2026-05-07 13:04 40.08447 116.59244 123 ft 7 kts 118°
2026-05-07 13:04 40.08393 116.59274 123 ft 9 kts 173°
2026-05-07 13:04 40.08323 116.59285 123 ft 11 kts 173°
2026-05-07 13:04 40.08233 116.59299 123 ft 14 kts 174°
2026-05-07 13:05 40.08125 116.59314 123 ft 16 kts 174°
2026-05-07 13:05 40.08006 116.59335 123 ft 15 kts 159°
2026-05-07 13:05 40.07898 116.59351 123 ft 15 kts 173°
2026-05-07 13:05 40.07788 116.59370 123 ft 15 kts 173°
2026-05-07 13:06 40.07677 116.59386 123 ft 15 kts 175°
2026-05-07 13:06 40.07567 116.59403 123 ft 16 kts 174°
2026-05-07 13:06 40.07459 116.59422 123 ft 14 kts 171°
2026-05-07 13:06 40.07367 116.59474 123 ft 14 kts 148°
2026-05-07 13:07 40.07268 116.59507 123 ft 15 kts 173°
2026-05-07 13:07 40.07163 116.59524 123 ft 15 kts 173°
2026-05-07 13:07 40.07055 116.59540 123 ft 15 kts 174°
2026-05-07 13:07 40.06945 116.59557 123 ft 16 kts 172°
2026-05-07 13:08 40.06830 116.59576 123 ft 17 kts 174°
2026-05-07 13:08 40.06710 116.59593 123 ft 17 kts 173°
2026-05-07 13:08 40.06583 116.59614 123 ft 18 kts 173°
2026-05-07 13:08 40.06454 116.59634 123 ft 19 kts 173°
2026-05-07 13:09 40.06318 116.59656 123 ft 19 kts 173°
2026-05-07 13:09 40.06181 116.59677 123 ft 20 kts 173°
2026-05-07 13:09 40.06040 116.59699 123 ft 20 kts 174°
2026-05-07 13:09 40.05898 116.59721 123 ft 20 kts 174°
2026-05-07 13:10 40.05757 116.59745 123 ft 20 kts 174°
2026-05-07 13:10 40.05632 116.59762 123 ft 15 kts 173°
2026-05-07 13:10 40.05526 116.59779 123 ft 14 kts 173°
2026-05-07 13:10 40.05470 116.59811 123 ft 7 kts 104°
2026-05-07 13:11 40.05473 116.59864 123 ft 2 kts 70°
2026-05-07 13:11 40.05473 116.59865 123 ft 0 kts 69°
2026-05-07 13:12 40.05475 116.59872 123 ft 1 kts 69°
2026-05-07 13:12 40.05486 116.59895 123 ft 4 kts 52°
2026-05-07 13:12 40.05512 116.59933 123 ft 7 kts 45°
2026-05-07 13:13 40.05560 116.59983 123 ft 9 kts 41°
2026-05-07 13:13 40.05617 116.60002 123 ft 4 kts 353°
2026-05-07 13:13 40.05622 116.60001 123 ft 0 kts 353°
2026-05-07 13:13 40.05645 116.59998 123 ft 19 kts 353°
2026-05-07 13:14 40.06048 116.59933 123 ft 93 kts 353°
2026-05-07 13:14 40.06908 116.59796 123 ft 152 kts 354°
2026-05-07 13:14 40.08023 116.59627 519 ft 164 kts 352°
2026-05-07 13:14 40.09118 116.59452 1246 ft 158 kts 351°
2026-05-07 13:15 40.10189 116.59270 1889 ft 159 kts 353°
2026-05-07 13:15 40.11328 116.59087 2323 ft 172 kts 353°
2026-05-07 13:15 40.12563 116.58892 2708 ft 188 kts 353°
2026-05-07 13:15 40.13893 116.58682 3193 ft 199 kts 353°
2026-05-07 13:16 40.15342 116.58451 3578 ft 220 kts 353°
2026-05-07 13:16 40.16909 116.58201 4160 ft 232 kts 352°
2026-05-07 13:16 40.18455 116.57650 4868 ft 238 kts 329°
2026-05-07 13:16 40.19552 116.55992 5471 ft 255 kts 294°
2026-05-07 13:17 40.19764 116.53680 6292 ft 267 kts 265°
2026-05-07 13:17 40.19088 116.51391 7149 ft 276 kts 245°
2026-05-07 13:17 40.18155 116.49226 7909 ft 280 kts 246°
2026-05-07 13:17 40.17227 116.46976 8726 ft 284 kts 247°
2026-05-07 13:18 40.16314 116.44719 9543 ft 285 kts 247°
2026-05-07 13:18 40.15391 116.42416 10364 ft 288 kts 248°
2026-05-07 13:18 40.14460 116.40076 10841 ft 301 kts 248°
2026-05-07 13:18 40.13469 116.37572 11196 ft 319 kts 248°
2026-05-07 13:19 40.12423 116.34930 11517 ft 337 kts 247°
2026-05-07 13:19 40.11317 116.32138 11892 ft 353 kts 247°
2026-05-07 13:19 40.10182 116.29282 12530 ft 358 kts 247°
2026-05-07 13:19 40.09039 116.26417 13242 ft 361 kts 248°
2026-05-07 13:20 40.07874 116.23499 13939 ft 365 kts 248°
2026-05-07 13:20 40.06697 116.20548 14595 ft 369 kts 248°
2026-05-07 13:20 40.05516 116.17586 15259 ft 372 kts 248°
2026-05-07 13:20 40.04322 116.14597 15885 ft 376 kts 248°
2026-05-07 13:21 40.03106 116.11552 16525 ft 379 kts 248°
2026-05-07 13:21 40.01895 116.08527 17135 ft 383 kts 248°
2026-05-07 13:21 40.00655 116.05432 17741 ft 386 kts 248°
2026-05-07 13:21 39.99409 116.02326 18329 ft 390 kts 248°
2026-05-07 13:22 39.98150 115.99193 18935 ft 392 kts 248°
2026-05-07 13:22 39.96880 115.96039 19529 ft 395 kts 249°
2026-05-07 13:22 39.95604 115.92870 20101 ft 397 kts 249°
2026-05-07 13:22 39.94333 115.89716 20688 ft 399 kts 249°
2026-05-07 13:23 39.93031 115.86484 21278 ft 401 kts 249°
2026-05-07 13:23 39.91734 115.83274 21871 ft 402 kts 250°
2026-05-07 13:23 39.90431 115.80047 22442 ft 404 kts 250°
2026-05-07 13:23 39.89136 115.76854 22952 ft 407 kts 250°
2026-05-07 13:24 39.87794 115.73573 23442 ft 410 kts 250°
2026-05-07 13:24 39.86460 115.70307 23924 ft 412 kts 250°
2026-05-07 13:24 39.85133 115.67048 24418 ft 413 kts 251°
2026-05-07 13:24 39.83780 115.63721 24888 ft 415 kts 251°
2026-05-07 13:25 39.82437 115.60416 25333 ft 416 kts 251°
2026-05-07 13:25 39.81079 115.57072 25688 ft 417 kts 251°
2026-05-07 13:25 39.79743 115.53783 25764 ft 417 kts 251°
2026-05-07 13:25 39.78392 115.50465 25767 ft 417 kts 251°
2026-05-07 13:26 39.77028 115.47122 25772 ft 416 kts 251°
2026-05-07 13:26 39.75683 115.43823 25781 ft 417 kts 251°
2026-05-07 13:26 39.74347 115.40482 25781 ft 416 kts 252°
2026-05-07 13:26 39.73020 115.37138 25785 ft 415 kts 252°
2026-05-07 13:27 39.71715 115.33840 25793 ft 417 kts 251°
2026-05-07 13:27 39.70393 115.30496 25782 ft 416 kts 251°
2026-05-07 13:27 39.69071 115.27152 25782 ft 415 kts 251°
2026-05-07 13:27 39.67756 115.23837 25783 ft 415 kts 251°
2026-05-07 13:28 39.66437 115.20512 25781 ft 415 kts 251°
2026-05-07 13:28 39.65113 115.17181 25789 ft 415 kts 251°
2026-05-07 13:28 39.63794 115.13870 25792 ft 416 kts 251°
2026-05-07 13:28 39.62470 115.10547 25786 ft 415 kts 252°
2026-05-07 13:29 39.61152 115.07248 25789 ft 415 kts 252°
2026-05-07 13:29 39.59828 115.03930 25808 ft 415 kts 251°
2026-05-07 13:29 39.58505 115.00622 25786 ft 414 kts 251°
2026-05-07 13:29 39.57169 114.97287 25794 ft 415 kts 251°
2026-05-07 13:30 39.55858 114.94018 25799 ft 414 kts 251°
2026-05-07 13:30 39.54530 114.90706 25791 ft 414 kts 251°
2026-05-07 13:30 39.53206 114.87410 25794 ft 414 kts 251°
2026-05-07 13:30 39.51875 114.84103 25800 ft 413 kts 252°
2026-05-07 13:31 39.50549 114.80808 25794 ft 414 kts 252°
2026-05-07 13:31 39.49235 114.77545 25791 ft 413 kts 251°
2026-05-07 13:31 39.47910 114.74255 25802 ft 414 kts 252°
2026-05-07 13:31 39.46576 114.70949 25802 ft 414 kts 251°
2026-05-07 13:32 39.45248 114.67664 25803 ft 414 kts 252°
2026-05-07 13:32 39.43909 114.64350 25798 ft 413 kts 251°
2026-05-07 13:32 39.42580 114.61066 25792 ft 413 kts 251°
2026-05-07 13:32 39.41250 114.57780 25805 ft 414 kts 252°
2026-05-07 13:33 39.39917 114.54494 25800 ft 413 kts 251°
2026-05-07 13:33 39.38601 114.51263 25814 ft 413 kts 251°
2026-05-07 13:33 39.37249 114.47950 25808 ft 414 kts 251°
2026-05-07 13:33 39.35918 114.44693 25800 ft 414 kts 251°
2026-05-07 13:34 39.34578 114.41417 25804 ft 414 kts 251°
2026-05-07 13:34 39.31887 114.34849 25805 ft 414 kts 251°
2026-05-07 13:34 39.30554 114.31593 25809 ft 413 kts 251°
2026-05-07 13:35 39.29211 114.28298 25811 ft 414 kts 251°
2026-05-07 13:35 39.27882 114.25043 25808 ft 414 kts 251°
2026-05-07 13:35 39.26538 114.21762 25813 ft 414 kts 251°
2026-05-07 13:35 39.25192 114.18515 25808 ft 416 kts 248°
2026-05-07 13:36 39.23357 114.15494 25805 ft 435 kts 232°
2026-05-07 13:36 39.20872 114.13228 25810 ft 451 kts 215°
2026-05-07 13:36 39.17918 114.11850 25826 ft 452 kts 203°
2026-05-07 13:36 39.14891 114.10799 25816 ft 446 kts 202°
2026-05-07 13:37 39.11910 114.09785 25814 ft 444 kts 202°
2026-05-07 13:37 39.08911 114.08752 25809 ft 444 kts 203°
2026-05-07 13:37 39.05944 114.07716 25806 ft 443 kts 203°
2026-05-07 13:37 39.02960 114.06664 25810 ft 443 kts 203°
2026-05-07 13:38 39.00012 114.05620 25815 ft 443 kts 204°
2026-05-07 13:38 38.97058 114.04571 25812 ft 443 kts 204°
2026-05-07 13:38 38.94060 114.03507 25808 ft 443 kts 204°
2026-05-07 13:38 38.91085 114.02451 25807 ft 443 kts 204°
2026-05-07 13:39 38.88122 114.01403 25803 ft 443 kts 204°
2026-05-07 13:39 38.85164 114.00362 25810 ft 443 kts 204°
2026-05-07 13:39 38.82209 113.99322 25812 ft 443 kts 204°
2026-05-07 13:39 38.79222 113.98266 25810 ft 443 kts 204°
2026-05-07 13:40 38.76238 113.97209 25810 ft 443 kts 204°
2026-05-07 13:40 38.73270 113.96161 25809 ft 443 kts 204°
2026-05-07 13:40 38.70304 113.95112 25807 ft 443 kts 204°
2026-05-07 13:40 38.67372 113.94076 25799 ft 443 kts 204°
2026-05-07 13:41 38.64399 113.93034 25799 ft 443 kts 204°
2026-05-07 13:41 38.61401 113.91985 25798 ft 443 kts 204°
2026-05-07 13:41 38.58467 113.90957 25792 ft 443 kts 204°
2026-05-07 13:41 38.55503 113.89919 25793 ft 443 kts 204°
2026-05-07 13:42 38.52523 113.88872 25798 ft 442 kts 204°
2026-05-07 13:42 38.49541 113.87824 25789 ft 443 kts 204°
2026-05-07 13:42 38.46593 113.86787 25785 ft 442 kts 204°
2026-05-07 13:42 38.43631 113.85746 25787 ft 443 kts 204°
2026-05-07 13:43 38.40643 113.84700 25797 ft 444 kts 204°
2026-05-07 13:43 38.37625 113.83591 25792 ft 454 kts 208°
2026-05-07 13:43 38.34906 113.81747 25774 ft 442 kts 227°
2026-05-07 13:43 38.32835 113.79029 25788 ft 424 kts 244°
2026-05-07 13:44 38.31440 113.75781 25812 ft 415 kts 253°
2026-05-07 13:44 38.30219 113.72461 25809 ft 416 kts 253°
2026-05-07 13:44 38.28984 113.69122 25810 ft 416 kts 253°
2026-05-07 13:44 38.27745 113.65795 25820 ft 416 kts 253°
2026-05-07 13:45 38.26510 113.62497 25817 ft 415 kts 252°
2026-05-07 13:45 38.25272 113.59213 25817 ft 415 kts 252°
2026-05-07 13:45 38.24024 113.55910 25826 ft 416 kts 252°
2026-05-07 13:45 38.22774 113.52605 25835 ft 415 kts 252°
2026-05-07 13:46 38.21525 113.49303 25836 ft 415 kts 252°
2026-05-07 13:46 38.20271 113.45995 25831 ft 413 kts 252°
2026-05-07 13:46 38.19027 113.42724 25838 ft 413 kts 252°
2026-05-07 13:46 38.17775 113.39437 25834 ft 415 kts 252°
2026-05-07 13:47 38.16526 113.36154 25841 ft 415 kts 252°
2026-05-07 13:47 38.15299 113.32890 25846 ft 414 kts 252°
2026-05-07 13:47 38.14069 113.29588 25840 ft 414 kts 252°
2026-05-07 13:47 38.12830 113.26260 25844 ft 415 kts 252°
2026-05-07 13:48 38.11612 113.22990 25848 ft 415 kts 252°
2026-05-07 13:48 38.10377 113.19684 25855 ft 415 kts 252°
2026-05-07 13:48 38.09141 113.16371 25847 ft 416 kts 252°
2026-05-07 13:48 38.07890 113.13012 25843 ft 427 kts 252°
2026-05-07 13:49 38.06609 113.09581 25839 ft 431 kts 252°
2026-05-07 13:49 38.05316 113.06139 25847 ft 432 kts 251°
2026-05-07 13:49 38.04035 113.02735 25848 ft 433 kts 252°
2026-05-07 13:49 38.02733 112.99283 25853 ft 432 kts 252°
2026-05-07 13:50 38.01448 112.95876 25857 ft 433 kts 252°
2026-05-07 13:50 38.00160 112.92456 25845 ft 432 kts 252°
2026-05-07 13:50 37.98851 112.88985 25855 ft 432 kts 252°
2026-05-07 13:50 37.97572 112.85603 25845 ft 432 kts 252°
2026-05-07 13:51 37.96277 112.82169 25847 ft 432 kts 252°
2026-05-07 13:51 37.94983 112.78746 25852 ft 432 kts 252°
2026-05-07 13:51 37.93687 112.75318 25849 ft 432 kts 252°
2026-05-07 13:51 37.92380 112.71872 25844 ft 432 kts 252°
2026-05-07 13:52 37.91083 112.68458 25846 ft 432 kts 252°
2026-05-07 13:52 37.89781 112.65038 25837 ft 432 kts 251°
2026-05-07 13:52 37.88223 112.61776 25828 ft 445 kts 240°
2026-05-07 13:52 37.86011 112.58937 25830 ft 458 kts 227°
2026-05-07 13:53 37.83286 112.56739 25829 ft 474 kts 214°
2026-05-07 13:53 37.80252 112.55061 25834 ft 484 kts 211°
2026-05-07 13:53 37.77106 112.53404 25833 ft 488 kts 211°
2026-05-07 13:53 37.73978 112.51770 25836 ft 489 kts 211°
2026-05-07 13:54 37.70864 112.50140 25838 ft 488 kts 211°
2026-05-07 13:54 37.67717 112.48485 25838 ft 488 kts 211°
2026-05-07 13:54 37.64572 112.46823 25839 ft 487 kts 211°
2026-05-07 13:54 37.61451 112.45172 25834 ft 487 kts 211°
2026-05-07 13:55 37.58337 112.43524 25840 ft 487 kts 211°
2026-05-07 13:55 37.55238 112.41881 25842 ft 487 kts 211°
2026-05-07 13:55 37.52093 112.40215 25849 ft 486 kts 211°
2026-05-07 13:55 37.48994 112.38573 25847 ft 485 kts 211°
2026-05-07 13:56 37.45887 112.36929 25855 ft 486 kts 211°
2026-05-07 13:56 37.42810 112.35304 25860 ft 485 kts 211°
2026-05-07 13:56 37.39694 112.33652 25856 ft 484 kts 210°
2026-05-07 13:56 37.36596 112.32003 25860 ft 485 kts 210°
2026-05-07 13:57 37.33472 112.30342 25863 ft 485 kts 210°
2026-05-07 13:57 37.30385 112.28709 25862 ft 485 kts 210°
2026-05-07 13:57 37.27290 112.27075 25866 ft 484 kts 210°
2026-05-07 13:57 37.24158 112.25425 25862 ft 485 kts 210°
2026-05-07 13:58 37.21060 112.23795 25864 ft 484 kts 210°
2026-05-07 13:58 37.17979 112.22179 25868 ft 482 kts 210°
2026-05-07 13:58 37.14891 112.20561 25866 ft 482 kts 210°
2026-05-07 13:58 37.11801 112.18943 25871 ft 483 kts 210°
2026-05-07 13:59 37.08709 112.17326 25871 ft 482 kts 210°
2026-05-07 13:59 37.05616 112.15709 25871 ft 482 kts 210°
2026-05-07 13:59 37.02522 112.14092 25874 ft 481 kts 210°
2026-05-07 13:59 36.99447 112.12486 25875 ft 480 kts 210°
2026-05-07 14:00 36.96365 112.10879 25884 ft 480 kts 210°
2026-05-07 14:00 36.93293 112.09277 25872 ft 480 kts 210°
2026-05-07 14:00 36.90201 112.07666 25887 ft 480 kts 210°
2026-05-07 14:00 36.87135 112.06076 25888 ft 480 kts 210°
2026-05-07 14:01 36.84038 112.04475 25889 ft 480 kts 210°
2026-05-07 14:01 36.80970 112.02889 25877 ft 481 kts 210°
2026-05-07 14:01 36.77856 112.01273 25879 ft 481 kts 210°
2026-05-07 14:01 36.74767 111.99670 25881 ft 480 kts 210°
2026-05-07 14:02 36.71717 111.98086 25884 ft 481 kts 210°
2026-05-07 14:02 36.68588 111.96466 25890 ft 481 kts 210°
2026-05-07 14:02 36.65554 111.94817 25892 ft 479 kts 212°
2026-05-07 14:02 36.62552 111.93021 25888 ft 478 kts 213°
2026-05-07 14:03 36.59593 111.91237 25881 ft 476 kts 213°
2026-05-07 14:03 36.56569 111.89411 25874 ft 477 kts 213°
2026-05-07 14:03 36.53609 111.87624 25877 ft 476 kts 213°
2026-05-07 14:03 36.50612 111.85811 25849 ft 478 kts 213°
2026-05-07 14:04 36.47627 111.84006 25866 ft 477 kts 213°
2026-05-07 14:04 36.44660 111.82217 25858 ft 478 kts 213°
2026-05-07 14:04 36.41680 111.80418 25858 ft 477 kts 213°
2026-05-07 14:04 36.38690 111.78612 25857 ft 478 kts 213°
2026-05-07 14:05 36.35706 111.76815 25844 ft 474 kts 213°
2026-05-07 14:05 36.32774 111.75057 25529 ft 462 kts 213°
2026-05-07 14:05 36.29922 111.73345 25177 ft 451 kts 213°
2026-05-07 14:05 36.27137 111.71672 24800 ft 441 kts 213°
2026-05-07 14:06 36.24405 111.70030 24417 ft 432 kts 213°
2026-05-07 14:06 36.21742 111.68428 24055 ft 427 kts 213°
2026-05-07 14:06 36.19087 111.66827 23700 ft 427 kts 212°
2026-05-07 14:06 36.16423 111.65224 23310 ft 427 kts 212°
2026-05-07 14:07 36.13759 111.63625 22938 ft 426 kts 212°
2026-05-07 14:07 36.11067 111.62013 22559 ft 425 kts 212°
2026-05-07 14:07 36.08414 111.60425 22200 ft 424 kts 212°
2026-05-07 14:07 36.05765 111.58841 21831 ft 423 kts 212°
2026-05-07 14:08 36.03146 111.57278 21462 ft 421 kts 212°
2026-05-07 14:08 36.00525 111.55714 21087 ft 420 kts 212°
2026-05-07 14:08 35.97877 111.54136 20715 ft 418 kts 212°
2026-05-07 14:08 35.95282 111.52590 20350 ft 416 kts 211°
2026-05-07 14:09 35.92662 111.51028 19982 ft 415 kts 211°
2026-05-07 14:09 35.90077 111.49488 19499 ft 413 kts 211°
2026-05-07 14:09 35.87499 111.47961 19016 ft 411 kts 211°
2026-05-07 14:09 35.84936 111.46446 18533 ft 410 kts 210°
2026-05-07 14:10 35.82387 111.44937 18050 ft 408 kts 210°
2026-05-07 14:10 35.79823 111.43423 17561 ft 406 kts 210°
2026-05-07 14:10 35.77312 111.41936 17075 ft 404 kts 210°
2026-05-07 14:10 35.74792 111.40445 16583 ft 401 kts 209°
2026-05-07 14:11 35.72290 111.38964 16072 ft 399 kts 209°
2026-05-07 14:11 35.69801 111.37491 15575 ft 396 kts 209°
2026-05-07 14:11 35.67299 111.36011 15095 ft 392 kts 209°
2026-05-07 14:11 35.64858 111.34568 14663 ft 389 kts 208°
2026-05-07 14:12 35.62456 111.33138 14237 ft 387 kts 208°
2026-05-07 14:12 35.60037 111.31696 13807 ft 385 kts 208°
2026-05-07 14:12 35.57615 111.30258 13369 ft 383 kts 207°
2026-05-07 14:12 35.55233 111.28848 12911 ft 381 kts 207°
2026-05-07 14:13 35.52839 111.27435 12427 ft 379 kts 207°
2026-05-07 14:13 35.50504 111.26058 11954 ft 376 kts 207°
2026-05-07 14:13 35.48153 111.24675 11464 ft 374 kts 206°
2026-05-07 14:13 35.45797 111.23287 10961 ft 371 kts 206°
2026-05-07 14:14 35.43508 111.21944 10482 ft 368 kts 206°
2026-05-07 14:14 35.41193 111.20633 10184 ft 359 kts 200°
2026-05-07 14:14 35.38773 111.20136 9908 ft 348 kts 174°
2026-05-07 14:14 35.36548 111.20963 9599 ft 335 kts 146°
2026-05-07 14:15 35.34921 111.22917 9254 ft 319 kts 116°
2026-05-07 14:15 35.34259 111.25381 8926 ft 298 kts 96°
2026-05-07 14:15 35.33861 111.27763 8858 ft 278 kts 102°
2026-05-07 14:15 35.33245 111.30006 8831 ft 275 kts 113°
2026-05-07 14:16 35.32031 111.31768 8598 ft 275 kts 147°
2026-05-07 14:16 35.30263 111.32481 8397 ft 270 kts 171°
2026-05-07 14:16 35.28403 111.32690 8169 ft 266 kts 178°
2026-05-07 14:16 35.26647 111.32172 7908 ft 263 kts 213°
2026-05-07 14:17 35.25448 111.30512 7515 ft 260 kts 251°
2026-05-07 14:17 35.25113 111.28397 7161 ft 257 kts 266°
2026-05-07 14:17 35.24891 111.26213 6781 ft 255 kts 262°
2026-05-07 14:17 35.24301 111.24229 6315 ft 255 kts 231°
2026-05-07 14:18 35.22889 111.23006 5825 ft 249 kts 192°
2026-05-07 14:18 35.21204 111.23054 5342 ft 239 kts 158°
2026-05-07 14:18 35.19667 111.23776 4879 ft 236 kts 155°
2026-05-07 14:18 35.18150 111.24442 4508 ft 230 kts 159°
2026-05-07 14:19 35.16593 111.24777 4174 ft 225 kts 188°
2026-05-07 14:19 35.15233 111.23930 3910 ft 222 kts 233°
2026-05-07 14:19 35.14703 111.22279 3900 ft 213 kts 265°
2026-05-07 14:19 35.14583 111.20470 3788 ft 209 kts 268°
2026-05-07 14:20 35.14432 111.18706 3505 ft 206 kts 265°
2026-05-07 14:20 35.14220 111.17000 3225 ft 203 kts 262°
2026-05-07 14:20 35.13956 111.15359 2964 ft 192 kts 259°
2026-05-07 14:20 35.13684 111.13833 2724 ft 178 kts 259°
2026-05-07 14:21 35.13429 111.12405 2475 ft 165 kts 259°
2026-05-07 14:21 35.13199 111.11092 2255 ft 152 kts 259°
2026-05-07 14:21 35.12981 111.09827 2077 ft 152 kts 259°
2026-05-07 14:21 35.12763 111.08569 1889 ft 152 kts 258°
2026-05-07 14:22 35.12539 111.07315 1707 ft 151 kts 258°
2026-05-07 14:22 35.12318 111.06068 1512 ft 151 kts 259°
2026-05-07 14:22 35.12111 111.04835 1329 ft 148 kts 259°
2026-05-07 14:22 35.11909 111.03637 1266 ft 134 kts 258°
2026-05-07 14:23 35.11771 111.02867 1265 ft 50 kts 257°
2026-05-07 14:23 35.11709 111.02525 1264 ft 37 kts 258°
2026-05-07 14:23 35.11659 111.02230 1264 ft 34 kts 258°
2026-05-07 14:23 35.11610 111.01962 1263 ft 30 kts 257°
2026-05-07 14:24 35.11567 111.01717 1263 ft 28 kts 257°
2026-05-07 14:24 35.11522 111.01500 1263 ft 20 kts 254°
2026-05-07 14:24 35.11452 111.01456 1263 ft 8 kts 169°
2026-05-07 14:24 35.11389 111.01470 1263 ft 9 kts 166°
2026-05-07 14:25 35.11359 111.01537 1263 ft 10 kts 86°
2026-05-07 14:25 35.11375 111.01627 1263 ft 11 kts 76°
2026-05-07 14:25 35.11395 111.01726 1263 ft 12 kts 76°
2026-05-07 14:25 35.11418 111.01836 1263 ft 14 kts 75°
2026-05-07 14:26 35.11438 111.01957 1263 ft 14 kts 94°
2026-05-07 14:26 35.11458 111.02081 1263 ft 15 kts 78°
2026-05-07 14:26 35.11479 111.02211 1264 ft 16 kts 79°
2026-05-07 14:26 35.11498 111.02351 1264 ft 16 kts 82°
2026-05-07 14:27 35.11516 111.02495 1264 ft 17 kts 76°
2026-05-07 14:27 35.11544 111.02640 1264 ft 17 kts 77°
2026-05-07 14:27 35.11575 111.02791 1264 ft 18 kts 76°
2026-05-07 14:27 35.11599 111.02917 1264 ft 13 kts 84°
2026-05-07 14:28 35.11525 111.02971 1264 ft 14 kts 167°
2026-05-07 14:28 35.11437 111.03010 1264 ft 11 kts 124°
2026-05-07 14:28 35.11443 111.03108 1264 ft 12 kts 79°
2026-05-07 14:28 35.11462 111.03216 1265 ft 13 kts 77°
2026-05-07 14:29 35.11482 111.03335 1265 ft 14 kts 78°
2026-05-07 14:29 35.11504 111.03462 1265 ft 15 kts 77°
2026-05-07 14:29 35.11520 111.03559 1265 ft 4 kts 97°
2026-05-07 14:29 35.11495 111.03584 1265 ft 5 kts 167°
2026-05-07 14:30 35.11458 111.03594 1265 ft 3 kts 167°
2026-05-07 14:30 35.11453 111.03596 1265 ft 0 kts 167°